This demonstration page uses our WeatherBlox Daily Observations layout. Learn more.

Left ArrowRight Arrow

39.51506, -84.39828

Hourly Observations for September 18, 2021

Temp ( °F °C ) Dew Point ( °F °C ) Humidity (%) Winds ( mph kmh ) Pressure ( in mb ) Visibility ( mi km ) Precip ( " mm )
12:15 am 00:15 Clear 66 19 N/A N/A N N/A 30.13 1020 10 16 N/A
12:35 am 00:35 Clear 66 19 N/A N/A N N/A 30.13 1020 10 16 N/A
12:55 am 00:55 Partly Cloudy 66 19 N/A N/A NW 5 7 30.13 1020 7 11 N/A
1:15 am 01:15 Hazy 66 19 N/A N/A N N/A 30.13 1020 7 11 N/A
1:35 am 01:35 Hazy 66 19 N/A N/A N N/A 30.13 1020 5 8 N/A
1:55 am 01:55 Hazy 66 19 N/A N/A N N/A 30.13 1020 7 11 N/A
2:15 am 02:15 Hazy 66 19 N/A N/A N N/A 30.13 1020 5 8 N/A
2:35 am 02:35 Clear 64 18 N/A N/A N N/A 30.13 1020 7 11 N/A
2:55 am 02:55 Hazy 64 18 N/A N/A N N/A 30.13 1020 5 8 N/A
3:15 am 03:15 Mostly Cloudy with Mist and Fog 64 18 N/A N/A N N/A 30.13 1020 2 3 N/A
3:35 am 03:35 Clear with Mist and Fog 64 18 N/A N/A N N/A 30.13 1020 3 4 N/A
3:55 am 03:55 Clear with Mist and Fog 64 18 N/A N/A N N/A 30.13 1020 3 4 N/A
4:15 am 04:15 Mostly Cloudy with Mist and Fog 64 18 N/A N/A N N/A 30.13 1020 1 2 N/A
4:35 am 04:35 Mostly Cloudy with Mist and Fog 64 18 N/A N/A N N/A 30.13 1020 2 2 N/A
4:55 am 04:55 Hazy 64 18 N/A N/A N N/A 30.13 1020 7 11 N/A
5:15 am 05:15 Hazy 64 18 N/A N/A N N/A 30.13 1020 7 11 N/A
5:35 am 05:35 Hazy 64 18 N/A N/A N N/A 30.14 1021 4 6 N/A
5:55 am 05:55 Mostly Cloudy with Mist and Fog 63 17 N/A N/A N N/A 30.14 1021 1 1 N/A
6:15 am 06:15 Hazy 63 17 N/A N/A N N/A 30.14 1021 4 6 N/A
6:35 am 06:35 Hazy 63 17 N/A N/A N N/A 30.14 1021 5 8 N/A
6:55 am 06:55 Mostly Cloudy with Mist and Fog 63 17 N/A N/A N N/A 30.15 1021 1 1 N/A
7:15 am 07:15 Clear with Mist and Fog 63 17 N/A N/A N N/A 30.14 1021 2 3 N/A
7:35 am 07:35 Sunny with Mist and Fog 63 17 N/A N/A N N/A 30.15 1021 4 6 N/A
7:55 am 07:55 Sunny with Mist and Fog 63 17 N/A N/A N N/A 30.15 1021 4 6 N/A
8:15 am 08:15 Hazy 64 18 N/A N/A N N/A 30.16 1021 7 11 N/A
8:35 am 08:35 Hazy 66 19 N/A N/A N N/A 30.16 1021 7 11 N/A
8:55 am 08:55 Sunny 68 20 N/A N/A N N/A 30.15 1021 10 16 N/A
9:15 am 09:15 Sunny 68 20 N/A N/A N N/A 30.16 1021 7 11 N/A
9:35 am 09:35 Sunny with Mist and Fog 71 21.4 70 21.1 98 98 N N/A 30.16 1021 7 11 N/A
9:55 am 09:55 Sunny 73 22.8 70 21.2 91 91 N N/A 30.16 1021 7 11 N/A
10:15 am 10:15 Sunny 75 24 70 21.2 84 84 N N/A 30.16 1021 10 16 N/A
10:35 am 10:35 Sunny 77 25.1 69 20.6 76 76 N N/A 30.15 1021 10 16 N/A
10:55 am 10:55 Hazy 79 26.3 69 20.8 72 72 N N/A 30.15 1021 3 4 N/A
11:15 am 11:15 Hazy 81 27.1 70 21.3 71 71 ESE 3 6 30.15 1021 4 6 N/A
11:35 am 11:35 Hazy 82 27.7 71 21.4 69 69 N 3 6 30.15 1021 5 8 N/A
11:55 am 11:55 Sunny 83 28.5 69 20.3 61 61 N 5 7 30.14 1020 7 11 N/A
12:15 pm 12:15 Sunny 85 29.2 69 20.5 59 59 ENE 6 9 30.13 1020 7 11 N/A
12:35 pm 12:35 Sunny 84 29 68 20.2 59 59 WNW 3 6 30.12 1020 10 16 N/A
12:55 pm 12:55 Sunny 86 30.2 67 19.4 52 52 NE 7 11 30.12 1020 7 11 N/A
1:15 pm 13:15 Sunny 85 29.7 65 18.1 50 50 W 3 6 30.11 1020 10 16 N/A
1:35 pm 13:35 Sunny 87 30.4 66 18.8 50 50 NE 6 9 30.11 1020 10 16 N/A
1:55 pm 13:55 Sunny 88 31.1 64 17.9 45 45 NE 5 7 30.10 1019 10 16 N/A
2:15 pm 14:15 Sunny 89 31.5 65 18.3 45 45 SE 7 11 30.09 1019 10 16 N/A
2:35 pm 14:35 Sunny 88 31.2 65 18.5 47 47 SSW 3 6 30.09 1019 10 16 N/A
2:55 pm 14:55 Partly Cloudy 88 31 63 17.3 44 44 ENE 3 6 30.09 1019 10 16 N/A
3:15 pm 15:15 Mostly Cloudy 86 30 63 17.4 47 47 N N/A 30.08 1019 10 16 N/A
3:35 pm 15:35 Partly Cloudy 87 30.3 65 18.4 49 49 N N/A 30.07 1018 10 16 N/A
3:55 pm 15:55 Sunny 87 30.5 66 18.9 50 50 W 3 6 30.06 1018 10 16 N/A
4:15 pm 16:15 Partly Cloudy 88 30.9 64 17.8 46 46 WSW 3 6 30.06 1018 10 16 N/A
4:35 pm 16:35 Partly Cloudy 88 31 63 17.1 43 43 N N/A 30.06 1018 10 16 N/A
4:55 pm 16:55 Partly Cloudy 88 31.3 65 18.3 46 46 NW 3 6 30.05 1018 10 16 N/A
5:15 pm 17:15 Partly Cloudy 88 31.1 64 17.5 44 44 ENE 3 6 30.05 1018 10 16 N/A
5:35 pm 17:35 Sunny 88 31.1 61 16 40 40 NNE 3 6 30.05 1018 10 16 N/A
5:55 pm 17:55 Sunny 87 30.6 62 16.9 44 44 N 3 6 30.05 1018 10 16 N/A
6:15 pm 18:15 Sunny 86 30 65 18.6 50 50 N N/A 30.05 1018 10 16 N/A
6:35 pm 18:35 Sunny 85 29.6 69 20.4 58 58 N N/A 30.05 1018 7 11 N/A
6:55 pm 18:55 Sunny 82 27.6 73 22.7 75 75 N N/A 30.06 1018 10 16 N/A
7:15 pm 19:15 Sunny 78 25.8 73 22.6 83 83 NNW 5 7 30.06 1018 10 16 N/A
7:35 pm 19:35 Sunny 78 25.6 68 20.1 72 72 NNW 5 7 30.06 1018 10 16 N/A
7:55 pm 19:55 Clear 78 25.3 67 19.2 69 69 NNW 3 6 30.06 1018 10 16 N/A
8:15 pm 20:15 Clear 75 24.1 69 20.3 79 79 ENE 3 6 30.08 1018 10 16 N/A
8:35 pm 20:35 Clear 74 23.4 69 20.5 84 84 N 3 6 30.08 1019 10 16 N/A
8:55 pm 20:55 Clear 73 22.8 69 20.5 87 87 N 3 6 30.09 1019 10 16 N/A
9:15 pm 21:15 Clear 71 21.4 70 21.2 99 99 N N/A 30.10 1019 10 16 N/A
9:35 pm 21:35 Clear 71 21.5 70 20.9 96 96 N N/A 30.10 1019 10 16 N/A
9:55 pm 21:55 Clear 69 20.7 69 20.6 99 99 NNW 5 7 30.11 1020 10 16 N/A
10:15 pm 22:15 Clear 70 21 68 20 94 94 N N/A 30.11 1020 10 16 N/A
10:35 pm 22:35 Clear 68 20 N/A N/A N N/A 30.11 1020 10 16 N/A
10:55 pm 22:55 Clear 68 20 N/A N/A N 3 6 30.11 1020 10 16 N/A
11:15 pm 23:15 Clear 68 20.2 68 20 99 99 N 3 6 30.11 1020 10 16 N/A
11:35 pm 23:35 Clear 69 20.3 68 20.1 99 99 N N/A 30.12 1020 10 16 N/A
11:55 pm 23:55 Clear 68 20 68 20 100 100 N N/A 30.12 1020 10 16 N/A

Powered by AerisWeather